Location: Unspecified
(37.3333°N, 0.0000°E)
Time: 07:46:20
(UTC+00:00)

Tiangong 2 - Pass Details

Date: 27 May 2019
Orbit: 376 x 388 km, 42.8° (Epoch: 26 June)

Event Time Altitude Azimuth Distance (km) Brightness Sun altitude
Rises 21:58:41 0° 292° (WNW) 2,235 5.7 -25.0°
Reaches altitude 10° 22:00:45 10° 290° (WNW) 1,381 4.5 -25.2°
Enters shadow 22:01:37 17° 288° (WNW) 1,031 3.7 -25.3°
